UAL2250 KTPA-KEYW

Flight info

Callsign UAL2250
Flight time 0h 47m
Altitude 31000
Route GANDY8 SABEE KRAKN1
Aircraft B738/M-SDE2E3FGHIRWXY/LB1

Departure

Time 2026-05-05 21:48
Airport Tampa International Airport (KTPA)

Arrival

Time 2026-05-05 22:35
Airport Key West International Airport (KEYW)
Time Latitude Longitude Altitude Speed Heading
2026-05-05 21:12 27.97608 -82.53756 41 ft 0 kts 34°
2026-05-05 21:34 27.97606 -82.53758 42 ft 3 kts 34°
2026-05-05 21:34 27.97584 -82.53774 40 ft 4 kts 33°
2026-05-05 21:34 27.97561 -82.53788 41 ft 4 kts
2026-05-05 21:35 27.97537 -82.53785 41 ft 4 kts 319°
2026-05-05 21:35 27.97527 -82.53771 40 ft 1 kts 301°
2026-05-05 21:35 27.97525 -82.53769 39 ft 1 kts 301°
2026-05-05 21:38 27.97537 -82.53790 42 ft 7 kts 302°
2026-05-05 21:38 27.97570 -82.53848 43 ft 10 kts 304°
2026-05-05 21:39 27.97588 -82.53920 44 ft 10 kts 274°
2026-05-05 21:39 27.97591 -82.53994 46 ft 9 kts 272°
2026-05-05 21:39 27.97613 -82.54057 46 ft 9 kts 324°
2026-05-05 21:39 27.97674 -82.54067 46 ft 9 kts
2026-05-05 21:40 27.97735 -82.54064 46 ft 9 kts
2026-05-05 21:40 27.97795 -82.54062 46 ft 8 kts
2026-05-05 21:40 27.97852 -82.54060 46 ft 8 kts
2026-05-05 21:40 27.97908 -82.54059 46 ft 8 kts
2026-05-05 21:41 27.97963 -82.54060 46 ft 8 kts 360°
2026-05-05 21:41 27.98015 -82.54058 46 ft 7 kts 357°
2026-05-05 21:41 27.98067 -82.54057 46 ft 7 kts
2026-05-05 21:41 27.98116 -82.54051 46 ft 7 kts
2026-05-05 21:42 27.98164 -82.54050 47 ft 7 kts
2026-05-05 21:42 27.98212 -82.54048 47 ft 7 kts
2026-05-05 21:42 27.98259 -82.54047 47 ft 7 kts
2026-05-05 21:42 27.98305 -82.54046 47 ft 7 kts
2026-05-05 21:43 27.98350 -82.54044 47 ft 6 kts
2026-05-05 21:43 27.98394 -82.54042 47 ft 6 kts
2026-05-05 21:43 27.98437 -82.54041 47 ft 6 kts
2026-05-05 21:43 27.98479 -82.54040 47 ft 6 kts
2026-05-05 21:44 27.98521 -82.54040 47 ft 6 kts
2026-05-05 21:44 27.98565 -82.54038 47 ft 7 kts
2026-05-05 21:44 27.98615 -82.54035 47 ft 8 kts
2026-05-05 21:44 27.98682 -82.54032 47 ft 11 kts
2026-05-05 21:45 27.98761 -82.54031 47 ft 11 kts
2026-05-05 21:45 27.98840 -82.54028 47 ft 11 kts
2026-05-05 21:45 27.98915 -82.54027 47 ft 11 kts
2026-05-05 21:45 27.98989 -82.54023 46 ft 10 kts
2026-05-05 21:46 27.99060 -82.54020 46 ft 10 kts
2026-05-05 21:46 27.99130 -82.54018 45 ft 10 kts
2026-05-05 21:46 27.99197 -82.54016 45 ft 10 kts
2026-05-05 21:46 27.99256 -82.54038 45 ft 9 kts 306°
2026-05-05 21:47 27.99267 -82.54108 46 ft 9 kts 258°
2026-05-05 21:47 27.99222 -82.54137 46 ft 1 kts 186°
2026-05-05 21:47 27.99199 -82.54138 46 ft 16 kts 181°
2026-05-05 21:47 27.98837 -82.54151 49 ft 87 kts 182°
2026-05-05 21:48 27.98351 -82.54159 48 ft 126 kts 183°
2026-05-05 21:48 27.97310 -82.54230 232 ft 159 kts 189°
2026-05-05 21:48 27.95792 -82.54321 1012 ft 166 kts 182°
2026-05-05 21:48 27.94645 -82.54415 1713 ft 167 kts 186°
2026-05-05 21:49 27.93844 -82.54540 2064 ft 180 kts 187°
2026-05-05 21:49 27.92015 -82.54859 2387 ft 219 kts 188°
2026-05-05 21:49 27.90423 -82.55136 2563 ft 244 kts 188°
2026-05-05 21:49 27.88662 -82.55439 2918 ft 264 kts 188°
2026-05-05 21:50 27.87454 -82.55644 3421 ft 266 kts 187°
2026-05-05 21:50 27.85613 -82.55956 4226 ft 268 kts 187°
2026-05-05 21:50 27.83754 -82.56266 4990 ft 273 kts 187°
2026-05-05 21:50 27.81860 -82.56580 5791 ft 274 kts 187°
2026-05-05 21:51 27.79965 -82.56894 6619 ft 277 kts 188°
2026-05-05 21:51 27.78043 -82.57211 7382 ft 281 kts 188°
2026-05-05 21:51 27.76073 -82.57088 8130 ft 288 kts 163°
2026-05-05 21:51 27.74224 -82.56259 8925 ft 293 kts 159°
2026-05-05 21:52 27.70380 -82.54399 10350 ft 310 kts 159°
2026-05-05 21:52 27.68314 -82.53404 10556 ft 336 kts 159°
2026-05-05 21:52 27.66106 -82.52347 11002 ft 351 kts 159°
2026-05-05 21:53 27.63832 -82.51261 11650 ft 358 kts 159°
2026-05-05 21:53 27.61521 -82.50162 12386 ft 363 kts 159°
2026-05-05 21:53 27.59172 -82.49048 13102 ft 369 kts 159°
2026-05-05 21:53 27.56783 -82.47909 13807 ft 376 kts 158°
2026-05-05 21:54 27.54407 -82.46599 14446 ft 383 kts 154°
2026-05-05 21:54 27.52047 -82.45170 15135 ft 388 kts 153°
2026-05-05 21:54 27.49673 -82.43699 15836 ft 392 kts 153°
2026-05-05 21:54 27.47262 -82.42212 16517 ft 397 kts 153°
2026-05-05 21:55 27.44809 -82.40716 17187 ft 403 kts 154°
2026-05-05 21:55 27.42358 -82.39233 17870 ft 407 kts 154°
2026-05-05 21:55 27.39832 -82.37714 18549 ft 410 kts 154°
2026-05-05 21:55 27.37326 -82.36211 19097 ft 415 kts 154°
2026-05-05 21:56 27.34755 -82.34671 19669 ft 419 kts 155°
2026-05-05 21:56 27.32166 -82.33120 20249 ft 423 kts 155°
2026-05-05 21:56 27.29552 -82.31553 20833 ft 427 kts 155°
2026-05-05 21:56 27.26915 -82.29970 21395 ft 431 kts 155°
2026-05-05 21:57 27.24263 -82.28377 21926 ft 435 kts 155°
2026-05-05 21:57 27.21579 -82.26766 22428 ft 440 kts 155°
2026-05-05 21:57 27.18866 -82.25137 22941 ft 444 kts 155°
2026-05-05 21:57 27.16127 -82.23493 23444 ft 448 kts 155°
2026-05-05 21:58 27.13371 -82.21840 23872 ft 452 kts 155°
2026-05-05 21:58 27.10585 -82.20172 24287 ft 456 kts 155°
2026-05-05 21:58 27.07719 -82.18757 24671 ft 452 kts 170°
2026-05-05 21:58 27.04643 -82.18125 25110 ft 450 kts 176°
2026-05-05 21:59 27.01502 -82.17589 25541 ft 453 kts 176°
2026-05-05 21:59 26.98376 -82.17049 25952 ft 456 kts 176°
2026-05-05 21:59 26.95261 -82.16488 26330 ft 460 kts 175°
2026-05-05 21:59 26.92089 -82.15895 26731 ft 464 kts 175°
2026-05-05 22:00 26.88890 -82.15284 27128 ft 467 kts 175°
2026-05-05 22:00 26.85661 -82.14660 27519 ft 471 kts 175°
2026-05-05 22:00 26.82429 -82.14036 27907 ft 474 kts 175°
2026-05-05 22:00 26.79164 -82.13408 28288 ft 477 kts 175°
2026-05-05 22:01 26.75924 -82.12786 28730 ft 478 kts 175°
2026-05-05 22:01 26.72658 -82.12102 29295 ft 478 kts 173°
2026-05-05 22:01 26.69360 -82.11323 29890 ft 476 kts 172°
2026-05-05 22:01 26.66168 -82.10542 30374 ft 476 kts 172°
2026-05-05 22:02 26.62941 -82.09760 30830 ft 474 kts 173°
2026-05-05 22:02 26.59684 -82.08986 30992 ft 479 kts 173°
2026-05-05 22:02 26.56433 -82.08226 30997 ft 478 kts 173°
2026-05-05 22:03 26.50023 -82.06347 31020 ft 477 kts 163°
2026-05-05 22:03 26.43868 -82.03472 31011 ft 482 kts 160°
2026-05-05 22:04 26.37700 -82.00493 31005 ft 483 kts 161°
2026-05-05 22:04 26.31489 -81.97605 31008 ft 482 kts 161°
2026-05-05 22:04 26.28380 -81.96187 30817 ft 482 kts 161°
2026-05-05 22:05 26.25292 -81.94785 30456 ft 476 kts 161°
2026-05-05 22:05 26.22240 -81.93401 30035 ft 472 kts 161°
2026-05-05 22:05 26.19212 -81.92028 29536 ft 468 kts 161°
2026-05-05 22:05 26.16236 -81.90679 29074 ft 464 kts 161°
2026-05-05 22:06 26.13261 -81.89330 28607 ft 460 kts 161°
2026-05-05 22:06 26.10304 -81.87990 28151 ft 456 kts 161°
2026-05-05 22:06 26.07382 -81.86665 27709 ft 452 kts 161°
2026-05-05 22:06 26.04479 -81.85350 27259 ft 448 kts 161°
2026-05-05 22:07 26.01604 -81.84049 26819 ft 445 kts 161°
2026-05-05 22:07 25.98737 -81.82752 26374 ft 442 kts 161°
2026-05-05 22:07 25.95898 -81.81468 25941 ft 439 kts 161°
2026-05-05 22:07 25.93085 -81.80196 25512 ft 436 kts 161°
2026-05-05 22:08 25.90286 -81.78932 25058 ft 434 kts 161°
2026-05-05 22:08 25.87545 -81.77534 24676 ft 433 kts 154°
2026-05-05 22:08 25.85000 -81.75849 24331 ft 430 kts 150°
2026-05-05 22:08 25.82479 -81.74050 23905 ft 429 kts 150°
2026-05-05 22:09 25.79991 -81.72251 23435 ft 428 kts 150°
2026-05-05 22:09 25.77502 -81.70472 22944 ft 425 kts 150°
2026-05-05 22:09 25.75014 -81.68722 22491 ft 422 kts 150°
2026-05-05 22:09 25.72524 -81.66993 22047 ft 419 kts 151°
2026-05-05 22:10 25.70059 -81.65295 21595 ft 416 kts 150°
2026-05-05 22:10 25.67602 -81.63610 21174 ft 413 kts 150°
2026-05-05 22:10 25.65207 -81.61969 20749 ft 410 kts 150°
2026-05-05 22:10 25.62759 -81.60292 20324 ft 407 kts 150°
2026-05-05 22:11 25.60359 -81.58647 19898 ft 404 kts 150°
2026-05-05 22:11 25.58002 -81.57032 19472 ft 402 kts 150°
2026-05-05 22:11 25.55621 -81.55402 19049 ft 400 kts 150°
2026-05-05 22:11 25.53259 -81.53787 18626 ft 398 kts 151°
2026-05-05 22:12 25.50759 -81.52583 18168 ft 390 kts 171°
2026-05-05 22:12 25.48096 -81.52403 17740 ft 379 kts 189°
2026-05-05 22:12 25.45579 -81.53045 17301 ft 368 kts 205°
2026-05-05 22:12 25.43228 -81.54111 16892 ft 363 kts 207°
2026-05-05 22:13 25.40913 -81.55224 16474 ft 360 kts 208°
2026-05-05 22:13 25.38622 -81.56326 16062 ft 357 kts 207°
2026-05-05 22:13 25.36353 -81.57403 15666 ft 354 kts 207°
2026-05-05 22:13 25.34117 -81.58451 15275 ft 351 kts 207°
2026-05-05 22:14 25.31873 -81.59494 14886 ft 349 kts 206°
2026-05-05 22:14 25.29640 -81.60527 14496 ft 346 kts 206°
2026-05-05 22:14 25.27433 -81.61546 14098 ft 344 kts 206°
2026-05-05 22:14 25.25218 -81.62568 13694 ft 342 kts 206°
2026-05-05 22:15 25.23016 -81.63584 13276 ft 340 kts 206°
2026-05-05 22:15 25.20848 -81.64584 12872 ft 337 kts 206°
2026-05-05 22:15 25.18691 -81.65579 12476 ft 334 kts 206°
2026-05-05 22:15 25.16551 -81.66565 12091 ft 332 kts 206°
2026-05-05 22:16 25.14453 -81.67533 11711 ft 329 kts 206°
2026-05-05 22:16 25.12348 -81.68504 11328 ft 327 kts 206°
2026-05-05 22:16 25.10262 -81.69465 10959 ft 325 kts 206°
2026-05-05 22:16 25.08171 -81.70429 10576 ft 323 kts 205°
2026-05-05 22:17 25.06124 -81.71371 10362 ft 315 kts 205°
2026-05-05 22:17 25.04127 -81.72289 10214 ft 306 kts 205°
2026-05-05 22:17 25.02209 -81.73170 10081 ft 298 kts 206°
2026-05-05 22:17 25.00303 -81.74047 9927 ft 290 kts 206°
2026-05-05 22:18 24.98477 -81.74886 9749 ft 284 kts 206°
2026-05-05 22:18 24.96671 -81.75716 9575 ft 278 kts 206°
2026-05-05 22:18 24.94890 -81.76536 9416 ft 277 kts 206°
2026-05-05 22:18 24.93105 -81.77357 9250 ft 277 kts 205°
2026-05-05 22:19 24.91324 -81.78175 9094 ft 278 kts 205°
2026-05-05 22:19 24.89542 -81.78993 8935 ft 279 kts 205°
2026-05-05 22:19 24.87725 -81.79766 8771 ft 281 kts 198°
2026-05-05 22:19 24.85801 -81.80190 8602 ft 283 kts 191°
2026-05-05 22:20 24.83869 -81.80486 8441 ft 283 kts 190°
2026-05-05 22:20 24.81913 -81.80768 8277 ft 284 kts 190°
2026-05-05 22:20 24.79957 -81.81059 8110 ft 283 kts 190°
2026-05-05 22:20 24.78007 -81.81359 7934 ft 280 kts 191°
2026-05-05 22:21 24.76102 -81.81660 7767 ft 275 kts 191°
2026-05-05 22:21 24.74214 -81.81965 7599 ft 272 kts 191°
2026-05-05 22:21 24.72359 -81.82269 7450 ft 272 kts 192°
2026-05-05 22:21 24.70468 -81.82582 7289 ft 272 kts 191°
2026-05-05 22:22 24.68593 -81.82893 7135 ft 272 kts 192°
2026-05-05 22:22 24.66752 -81.83199 6979 ft 273 kts 192°
2026-05-05 22:22 24.64853 -81.83514 6820 ft 273 kts 191°
2026-05-05 22:22 24.63001 -81.83822 6659 ft 273 kts 191°
2026-05-05 22:23 24.61120 -81.84135 6500 ft 272 kts 191°
2026-05-05 22:23 24.59270 -81.84442 6327 ft 266 kts 191°
2026-05-05 22:23 24.57459 -81.84742 6159 ft 261 kts 191°
2026-05-05 22:23 24.55679 -81.85036 5999 ft 256 kts 191°
2026-05-05 22:24 24.53908 -81.85115 5843 ft 252 kts 181°
2026-05-05 22:24 24.52173 -81.85038 5698 ft 247 kts 180°
2026-05-05 22:24 24.50472 -81.84963 5539 ft 243 kts 181°
2026-05-05 22:24 24.48782 -81.84861 5416 ft 244 kts 172°
2026-05-05 22:25 24.47248 -81.84079 5256 ft 251 kts 139°
2026-05-05 22:25 24.46322 -81.82466 5127 ft 254 kts 104°
2026-05-05 22:25 24.46157 -81.80546 5011 ft 253 kts 89°
2026-05-05 22:25 24.46195 -81.78603 4853 ft 255 kts 88°
2026-05-05 22:26 24.46242 -81.76651 4705 ft 254 kts 88°
2026-05-05 22:26 24.46277 -81.74724 4519 ft 250 kts 89°
2026-05-05 22:26 24.46303 -81.72830 4369 ft 245 kts 89°
2026-05-05 22:26 24.46325 -81.70981 4227 ft 240 kts 89°
2026-05-05 22:27 24.46344 -81.69163 4079 ft 235 kts 89°
2026-05-05 22:27 24.46362 -81.67386 3942 ft 232 kts 89°
2026-05-05 22:27 24.46379 -81.65613 3826 ft 233 kts 89°
2026-05-05 22:27 24.46395 -81.63849 3700 ft 235 kts 89°
2026-05-05 22:28 24.46412 -81.62045 3562 ft 236 kts 89°
2026-05-05 22:28 24.46427 -81.60272 3442 ft 228 kts 88°
2026-05-05 22:28 24.46441 -81.58575 3307 ft 217 kts 88°
2026-05-05 22:28 24.46530 -81.56962 3157 ft 205 kts 73°
2026-05-05 22:29 24.47278 -81.55729 3027 ft 194 kts 35°
2026-05-05 22:29 24.48469 -81.55119 2934 ft 192 kts
2026-05-05 22:29 24.49805 -81.55054 2840 ft 189 kts 358°
2026-05-05 22:29 24.51111 -81.55070 2720 ft 188 kts 358°
2026-05-05 22:30 24.52419 -81.55085 2626 ft 185 kts 359°
2026-05-05 22:30 24.53662 -81.55099 2465 ft 177 kts 359°
2026-05-05 22:30 24.54835 -81.55294 2362 ft 165 kts 331°
2026-05-05 22:30 24.55562 -81.56171 2325 ft 155 kts 296°
2026-05-05 22:31 24.55723 -81.57343 2279 ft 159 kts 271°
2026-05-05 22:31 24.55743 -81.58573 2148 ft 162 kts 272°
2026-05-05 22:31 24.55756 -81.59806 2044 ft 158 kts 271°
2026-05-05 22:31 24.55754 -81.60976 2007 ft 150 kts 271°
2026-05-05 22:32 24.55747 -81.62107 2001 ft 146 kts 271°
2026-05-05 22:32 24.55737 -81.63236 1864 ft 153 kts 271°
2026-05-05 22:32 24.55725 -81.64382 1721 ft 147 kts 271°
2026-05-05 22:32 24.55713 -81.65513 1624 ft 153 kts 271°
2026-05-05 22:33 24.55701 -81.66665 1520 ft 149 kts 271°
2026-05-05 22:33 24.55689 -81.67775 1373 ft 147 kts 272°
2026-05-05 22:33 24.55677 -81.68900 1201 ft 140 kts 271°
2026-05-05 22:33 24.55666 -81.69922 1000 ft 132 kts 271°
2026-05-05 22:34 24.55656 -81.70935 855 ft 134 kts 271°
2026-05-05 22:34 24.55646 -81.71969 669 ft 135 kts 271°
2026-05-05 22:34 24.55634 -81.72997 464 ft 136 kts 272°
2026-05-05 22:34 24.55645 -81.74029 287 ft 133 kts 272°
2026-05-05 22:35 24.55622 -81.75017 92 ft 126 kts 270°
2026-05-05 22:35 24.55611 -81.75892 11 ft 106 kts 271°
2026-05-05 22:35 24.55603 -81.76369 8 ft 82 kts 270°
2026-05-05 22:35 24.55599 -81.76608 10 ft 5 kts 258°
2026-05-05 22:36 24.55565 -81.76645 10 ft 9 kts 194°
2026-05-05 22:36 24.55527 -81.76626 11 ft 0 kts 126°
2026-05-05 22:37 24.55526 -81.76623 11 ft 2 kts 121°
2026-05-05 22:37 24.55520 -81.76589 11 ft 7 kts 97°
2026-05-05 22:37 24.55519 -81.76528 11 ft 8 kts 88°
2026-05-05 22:37 24.55520 -81.76467 11 ft 8 kts 90°
2026-05-05 22:38 24.55520 -81.76407 11 ft 8 kts 90°
2026-05-05 22:38 24.55522 -81.76349 11 ft 7 kts 89°
2026-05-05 22:38 24.55523 -81.76293 11 ft 7 kts 89°
2026-05-05 22:38 24.55523 -81.76239 11 ft 7 kts 89°
2026-05-05 22:39 24.55523 -81.76186 11 ft 7 kts 90°
2026-05-05 22:39 24.55523 -81.76135 11 ft 7 kts 90°
2026-05-05 22:39 24.55523 -81.76084 11 ft 6 kts 90°
2026-05-05 22:39 24.55523 -81.76035 11 ft 6 kts 90°
2026-05-05 22:40 24.55524 -81.75987 11 ft 6 kts 86°
2026-05-05 22:40 24.55526 -81.75941 13 ft 6 kts 86°
2026-05-05 22:40 24.55529 -81.75895 11 ft 6 kts 88°
2026-05-05 22:40 24.55528 -81.75851 11 ft 6 kts 95°
2026-05-05 22:41 24.55526 -81.75809 11 ft 6 kts 93°
2026-05-05 22:41 24.55526 -81.75766 11 ft 5 kts 90°
2026-05-05 22:41 24.55526 -81.75725 11 ft 5 kts 90°
2026-05-05 22:41 24.55526 -81.75685 11 ft 5 kts 90°
2026-05-05 22:42 24.55526 -81.75647 11 ft 5 kts 88°
2026-05-05 22:42 24.55527 -81.75610 11 ft 5 kts 88°
2026-05-05 22:42 24.55528 -81.75574 11 ft 5 kts 88°
2026-05-05 22:42 24.55529 -81.75539 11 ft 4 kts 89°
2026-05-05 22:43 24.55530 -81.75505 11 ft 4 kts 89°
2026-05-05 22:43 24.55530 -81.75473 11 ft 4 kts 89°
2026-05-05 22:43 24.55530 -81.75441 11 ft 4 kts 89°
2026-05-05 22:43 24.55531 -81.75411 11 ft 4 kts 89°
2026-05-05 22:44 24.55531 -81.75382 12 ft 4 kts 89°
2026-05-05 22:44 24.55530 -81.75354 11 ft 4 kts 107°
2026-05-05 22:44 24.55517 -81.75330 12 ft 4 kts 130°
2026-05-05 22:44 24.55497 -81.75312 14 ft 4 kts 142°
2026-05-05 22:45 24.55474 -81.75300 11 ft 4 kts 175°
2026-05-05 22:45 24.55449 -81.75299 11 ft 3 kts 178°
2026-05-05 22:45 24.55444 -81.75298 11 ft 0 kts 179°
2026-05-05 22:45 24.55439 -81.75298 11 ft 0 kts 179°